World > North America > United States > Ohio

Catawba Island, Ohio Regional Weather

Lat: 41.59N, Lon: 82.84W
Wx Zone: OHZ007
Feedback

Catawba Island, OH Regional Weather

Expires:201909160200;;852355
ASUS41 KCLE 160112
RWRCLE
OHIO REGIONAL WEATHER ROUNDUP
NATIONAL WEATHER SERVICE WILMINGTON, OH
900 PM EDT SUN SEP 15 2019

NOTE: "FAIR" INDICATES FEW OR NO CLOUDS BELOW 12,000 FEET WITH NO
SIGNIFICANT WEATHER AND/OR OBSTRUCTIONS TO VISIBILITY.


OHZ001>008-015>018-024>027-034-035-043-044-160200-
   NORTHWEST OHIO
  
CITY           SKY/WX    TMP DP  RH WIND       PRES   REMARKS
DEFIANCE       CLOUDY    69  62  78 SE3       30.05S                  
FINDLAY        CLOUDY    73  61  65 S6        30.05F                  
TOLEDO EXPRESS CLOUDY    71  63  75 CALM      30.05S                  
TOLEDO EXEC    CLOUDY    72  65  78 S3        30.06F                  
LIMA           NOT AVBL                                               
$$
 

SKY/WX - Weather  TMP - Temperature  DP - Dew Point  RH - Relative Humidity
WIND - Wind Direction/Speed PRES - Barometric Pressure VSB - Visibility
WCI - Wind Chill Index E13G22 Wind - East Wind 13 mph/Gusts of 22 mph